Regional Weather Roundup
Issued by NWS Newport/Morehead, NC

Home | Current Version | Previous Version | Text Only | Print | Product List | Glossary On
Versions: 1 2 3 4 5 6 7 8 9 10 11 12 13 14 15 16 17 18 19 20 21 22 23 24 25 26 27 28 29 30 31 32 33 34 35 36 37 38 39 40 41 42 43 44 45 46 47 48 49 50
000
ASUS42 KMHX 301425
RWRMHX
WEATHER ROUNDUP FOR EASTERN NORTH CAROLINA
NATIONAL WEATHER SERVICE NEWPORT/MOREHEAD CITY NC
1000 AM EDT SUN AUG 30 2015

NOTE: "FAIR" INDICATES FEW OR NO CLOUDS BELOW 12,000 FEET
WITH NO SIGNIFICANT WEATHER AND/OR OBSTRUCTIONS TO VISIBILITY

NCZ015>017-031-032-045>047-102-103-301500-
NORTH COAST

CITY           SKY/WX    TMP DP  RH WIND       PRES   REMARKS
EDENTON        SUNNY     77  67  71 CALM      30.17R
ELIZABETH CITY PTSUNNY   78  67  68 N5        30.16R
KITTY HAWK     PTSUNNY   82  71  68 N6        30.14R
MANTEO         PTSUNNY   79  72  78 N7        30.15R

$$

NCZ045>047-081-094-103-104-301500-
CENTRAL COAST

CITY           SKY/WX    TMP DP  RH WIND       PRES   REMARKS
FRISCO         MOSUNNY   80  74  81 N7        30.14R
SWANQUARTER    NOT AVBL

$$

NCZ095-097-098-100-101-301500-
SOUTHERN COAST

CITY           SKY/WX    TMP DP  RH WIND       PRES   REMARKS
BEAUFORT       MOSUNNY   78  70  76 N7        30.16R
CEDAR ISLAND   NOT AVBL
JACKSONVILLE   PTSUNNY   76  67  73 CALM      30.17R
PINEY ISLAND   MOSUNNY  N/A N/A N/A N8        30.15R
WILMINGTON     CLOUDY    73  67  81 CALM      30.16R


$$

NCZ011>013-027>030-043-044-078>080-089-090>093-098-301500-
COASTAL PLAIN

CITY           SKY/WX    TMP DP  RH WIND       PRES   REMARKS
AHOSKIE        SUNNY     78  61  55 CALM      30.17R
CLINTON        PTSUNNY   78  66  67 CALM      30.18R
ELIZABETHTOWN  CLOUDY    74  67  76 CALM      30.17R
GOLDSBORO      MOSUNNY   78  65  64 SE1       30.16R
GREENVILLE     SUNNY     79  64  61 CALM      30.18R
HAVELOCK       PTSUNNY   78  69  73 N6        30.18R
KENANSVILLE      N/A     75  66  75 CALM      30.18S
KINSTON        MOSUNNY   77  64  65 CALM      30.18R
NEW BERN       MOSUNNY   76  67  73 N5        30.18R
RICHLANDS      PTSUNNY   77  63  61 CALM      30.18R
ROCKY MOUNT    SUNNY     82  61  48 CALM      30.17S
WASHINGTON     SUNNY     78  67  70 CALM      30.17R
WHITEVILLE     CLOUDY    74  68  81 E3        30.17R

$$

AMZ130-135-150-152-154-156-158-170-250-252-270-ANZ085-086-088-633-658-670-301500-
MARINE OBSERVATIONS

STATION/POSITION TIME  TEMP    WIND        PRES    WAVE   SWELL
                       AIR SEA DIR/SP/G            HT/PER HT/PER
                 (UTC) (F)     (DEG/KT/KT) (MB)    (FT/S) (FT/S)
CHESAPEAKE LIGHT 1400   77     360/  5/  5 1021.6
64 E VA BEACH    1350   78 77   20/ 10/ 12 1020.1    4/11   3/11
DUCK             NOT AVBL
2 E DUCK         1411      78                N/A     3/11   2/11
OREGON INLET     NOT AVBL
13E OREGON INLT  1400      78                N/A     4/11   2/11
HATTERAS CG      NOT AVBL
DIAMOND BUOY     1350   78 84  360/ 10/ 14 1020.6    4/10   3/10
CAPE LOOKOUT     1400   77     360/  4/  5 1021.0
BEAUFORT LAB     NOT AVBL
30 SE NEW RVR IN 1308   78 81   10/  6/ 10 1021.1
30 SE NEW RVR IN 1325      81                N/A     3/11   2/11
27 SE WRIGHTSVLE 1400   76 81   60/  6/  8   N/A
5 SE WRIGHTSVLE  1308   78 82   30/ 10/ 14 1020.4
225 S CAPE HAT   1350   84 84  230/  4/  6 1021.3    4/10   5/10
41 SE CHARLESTON 1350   78 85   90/  6/ 10 1019.6    4/11   3/11

$$


USA.gov is the U.S. government's official web portal to all federal, state and local government web resources and services.